Satellite: NOAA-14 Catalog number: 23455 Epoch time: 10086.40090424 Element set: 998 Inclination: 098.8802 deg RA of node: 167.7038 deg Eccentricity: 0.0010205 Arg of perigee: 105.7383 deg Mean anomaly: 254.4918 deg Mean motion: 14.13781660 rev/day Decay rate: -1.2e-07 rev/day^2 Epoch rev: 78594 Checksum: 308
Satellite: NOAA-15 Catalog number: 25338 Epoch time: 10086.20253120 Element set: 318 Inclination: 098.6142 deg RA of node: 074.6204 deg Eccentricity: 0.0009964 Arg of perigee: 318.1730 deg Mean anomaly: 041.8690 deg Mean motion: 14.24815063 rev/day Decay rate: 2.26e-06 rev/day^2 Epoch rev: 61707 Checksum: 276
Satellite: RESURS Catalog number: 25394 Epoch time: 10086.14944615 Element set: 463 Inclination: 098.3118 deg RA of node: 108.6744 deg Eccentricity: 0.0002388 Arg of perigee: 093.8279 deg Mean anomaly: 266.3173 deg Mean motion: 14.24196058 rev/day Decay rate: -9.0e-08 rev/day^2 Epoch rev: 60867 Checksum: 320
Satellite: FENGYUN1 Catalog number: 25730 Epoch time: 10085.88582015 Element set: 4 Inclination: 098.7813 deg RA of node: 052.9959 deg Eccentricity: 0.0024023 Arg of perigee: 137.3477 deg Mean anomaly: 222.9604 deg Mean motion: 14.08200365 rev/day Decay rate: 6.28e-06 rev/day^2 Epoch rev: 56010 Checksum: 282
Satellite: OKEAN-0 Catalog number: 25860 Epoch time: 10085.98489308 Element set: 949 Inclination: 097.8244 deg RA of node: 061.5150 deg Eccentricity: 0.0001372 Arg of perigee: 051.2812 deg Mean anomaly: 308.8520 deg Mean motion: 14.73625266 rev/day Decay rate: 1.15e-06 rev/day^2 Epoch rev: 57479 Checksum: 307
Satellite: NOAA-16 Catalog number: 26536 Epoch time: 10086.20208715 Element set: 794 Inclination: 099.1759 deg RA of node: 101.7237 deg Eccentricity: 0.0010162 Arg of perigee: 203.2681 deg Mean anomaly: 156.8026 deg Mean motion: 14.12550300 rev/day Decay rate: -2.04e-06 rev/day^2 Epoch rev: 49025 Checksum: 268
Satellite: NOAA-17 Catalog number: 27453 Epoch time: 10086.35739221 Element set: 799 Inclination: 098.4407 deg RA of node: 140.0610 deg Eccentricity: 0.0012079 Arg of perigee: 021.3832 deg Mean anomaly: 338.7837 deg Mean motion: 14.24142135 rev/day Decay rate: -5.4e-07 rev/day^2 Epoch rev: 40305 Checksum: 282
Satellite: NOAA-18 Catalog number: 28654 Epoch time: 10086.34754046 Element set: 284 Inclination: 098.9417 deg RA of node: 032.8767 deg Eccentricity: 0.0013521 Arg of perigee: 285.5289 deg Mean anomaly: 074.4400 deg Mean motion: 14.11339271 rev/day Decay rate: 3.3e-07 rev/day^2 Epoch rev: 24989 Checksum: 318
Satellite: NOAA-19 Catalog number: 33591 Epoch time: 10086.38870943 Element set: 483 Inclination: 098.7813 deg RA of node: 030.2758 deg Eccentricity: 0.0014437 Arg of perigee: 157.7287 deg Mean anomaly: 202.4503 deg Mean motion: 14.11039025 rev/day Decay rate: 3.69e-06 rev/day^2 Epoch rev: 5837 Checksum: 313
/EX SB KEPS @ AMSAT $ORB10087.M Orbital Elements 10087.MISC
HR AMSAT ORBITAL ELEMENTS FOR MANNED AND MISCELLANEOUS SATELLITES FROM WA5QGD FORT WORTH,TX March 28, 2010 Send Subscribe/unsubscribe to KEPS at http://www.amsat.org/mailman/listinfo/keps BID: ORB10087.M TO ALL RADIO AMATEURS BT
Satellite: HUBBLE Catalog number: 20580 Epoch time: 10085.13072512 Element set: 540 Inclination: 028.4693 deg RA of node: 062.0538 deg Eccentricity: 0.0003273 Arg of perigee: 041.8770 deg Mean anomaly: 318.2061 deg Mean motion: 15.00930404 rev/day Decay rate: 5.91e-06 rev/day^2 Epoch rev: 89226 Checksum: 255
Satellite: ISS Catalog number: 25544 Epoch time: 10087.00051365 Element set: 856 Inclination: 051.6441 deg RA of node: 287.3974 deg Eccentricity: 0.0006569 Arg of perigee: 114.6728 deg Mean anomaly: 048.8749 deg Mean motion: 15.73940784 rev/day Decay rate: 2.3257e-04 rev/day^2 Epoch rev: 65068 Checksum: 330
Satellite: CO-58 Catalog number: 28895 Epoch time: 10086.14541900 Element set: 545 Inclination: 098.0263 deg RA of node: 333.2893 deg Eccentricity: 0.0017867 Arg of perigee: 179.1293 deg Mean anomaly: 180.9928 deg Mean motion: 14.59864978 rev/day Decay rate: 1.75e-06 rev/day^2 Epoch rev: 23501 Checksum: 350
Satellite: FALCON Catalog number: 30776 Epoch time: 10086.60945769 Element set: 794 Inclination: 035.4329 deg RA of node: 179.5309 deg Eccentricity: 0.0001095 Arg of perigee: 263.4416 deg Mean anomaly: 096.6176 deg Mean motion: 15.03550732 rev/day Decay rate: 1.064e-05 rev/day^2 Epoch rev: 16777 Checksum: 318
Satellite: MAST Catalog number: 31126 Epoch time: 10084.79233653 Element set: 827 Inclination: 097.9492 deg RA of node: 131.0793 deg Eccentricity: 0.0095548 Arg of perigee: 124.9066 deg Mean anomaly: 236.1129 deg Mean motion: 14.53566380 rev/day Decay rate: 4.1e-07 rev/day^2 Epoch rev: 15594 Checksum: 308
Satellite: CAPE1 Catalog number: 31130 Epoch time: 10086.07224037 Element set: 847 Inclination: 097.9482 deg RA of node: 129.8673 deg Eccentricity: 0.0103353 Arg of perigee: 128.2885 deg Mean anomaly: 232.7661 deg Mean motion: 14.52152026 rev/day Decay rate: 3.31e-06 rev/day^2 Epoch rev: 15574 Checksum: 285
Satellite: COMPASS Catalog number: 32787 Epoch time: 10086.19409217 Element set: 629 Inclination: 097.9006 deg RA of node: 152.0535 deg Eccentricity: 0.0015602 Arg of perigee: 188.4603 deg Mean anomaly: 171.6383 deg Mean motion: 14.81801199 rev/day Decay rate: 2.16e-06 rev/day^2 Epoch rev: 10335 Checksum: 289
Satellite: AAUSAT2 Catalog number: 32788 Epoch time: 10086.40751482 Element set: 624 Inclination: 097.9051 deg RA of node: 152.3767 deg Eccentricity: 0.0015613 Arg of perigee: 186.8912 deg Mean anomaly: 173.2268 deg Mean motion: 14.81940691 rev/day Decay rate: 6.40e-06 rev/day^2 Epoch rev: 10339 Checksum: 308
Satellite: DO-64 Catalog number: 32789 Epoch time: 10086.08555229 Element set: 639 Inclination: 097.9080 deg RA of node: 152.4419 deg Eccentricity: 0.0015629 Arg of perigee: 187.7096 deg Mean anomaly: 172.3900 deg Mean motion: 14.82034654 rev/day Decay rate: 1.082e-05 rev/day^2 Epoch rev: 10334 Checksum: 318
Satellite: CO-66 Catalog number: 32791 Epoch time: 10085.93426777 Element set: 620 Inclination: 097.9025 deg RA of node: 151.8205 deg Eccentricity: 0.0015492 Arg of perigee: 187.9017 deg Mean anomaly: 172.1961 deg Mean motion: 14.81598515 rev/day Decay rate: 8.9e-07 rev/day^2 Epoch rev: 10327 Checksum: 324
Satellite: RS-30 Catalog number: 32953 Epoch time: 10086.91541677 Element set: 558 Inclination: 082.4966 deg RA of node: 080.2156 deg Eccentricity: 0.0017432 Arg of perigee: 281.8331 deg Mean anomaly: 078.0795 deg Mean motion: 12.43004496 rev/day Decay rate: 1.0e-07 rev/day^2 Epoch rev: 8364 Checksum: 300
Satellite: TACSAT-3 Catalog number: 35001 Epoch time: 10086.15385823 Element set: 247 Inclination: 040.4582 deg RA of node: 346.5899 deg Eccentricity: 0.0020290 Arg of perigee: 110.8621 deg Mean anomaly: 249.4369 deg Mean motion: 15.40898743 rev/day Decay rate: 6.867e-05 rev/day^2 Epoch rev: 4797 Checksum: 323
Satellite: PHARMSAT Catalog number: 35002 Epoch time: 10085.87840848 Element set: 234 Inclination: 040.4716 deg RA of node: 346.5609 deg Eccentricity: 0.0023319 Arg of perigee: 113.5682 deg Mean anomaly: 246.7582 deg Mean motion: 15.41495138 rev/day Decay rate: 6.038e-05 rev/day^2 Epoch rev: 4794 Checksum: 303
Satellite: HAWKSAT1 Catalog number: 35003 Epoch time: 10086.12618429 Element set: 249 Inclination: 040.4648 deg RA of node: 341.9752 deg Eccentricity: 0.0021549 Arg of perigee: 126.7583 deg Mean anomaly: 233.5214 deg Mean motion: 15.43707243 rev/day Decay rate: 1.2103e-04 rev/day^2 Epoch rev: 4802 Checksum: 269
Satellite: CP6 Catalog number: 35004 Epoch time: 10086.80668224 Element set: 242 Inclination: 040.4634 deg RA of node: 337.4568 deg Eccentricity: 0.0020410 Arg of perigee: 132.7397 deg Mean anomaly: 227.5153 deg Mean motion: 15.44248288 rev/day Decay rate: 1.4479e-04 rev/day^2 Epoch rev: 4812 Checksum: 291
Satellite: AEROCUB3 Catalog number: 35005 Epoch time: 10086.08240581 Element set: 258 Inclination: 040.4768 deg RA of node: 341.9772 deg Eccentricity: 0.0017676 Arg of perigee: 130.7388 deg Mean anomaly: 229.4966 deg Mean motion: 15.46144193 rev/day Decay rate: 3.0629e-04 rev/day^2 Epoch rev: 4801 Checksum: 309
Satellite: DRAGNSAT Catalog number: 35690 Epoch time: 10076.22711312 Element set: 316 Inclination: 051.6170 deg RA of node: 315.4586 deg Eccentricity: 0.0004999 Arg of perigee: 310.9891 deg Mean anomaly: 057.3269 deg Mean motion: 16.42150010 rev/day Decay rate: 5.715194e-02 rev/day^2 Epoch rev: 3656 Checksum: 289
Satellite: POLLUX Catalog number: 35693 Epoch time: 10085.91699132 Element set: 351 Inclination: 051.6247 deg RA of node: 266.2346 deg Eccentricity: 0.0007410 Arg of perigee: 311.5608 deg Mean anomaly: 051.0772 deg Mean motion: 16.28668914 rev/day Decay rate: 1.498737e-02 rev/day^2 Epoch rev: 3805 Checksum: 312
Satellite: CASTOR Catalog number: 35694 Epoch time: 10086.90666055 Element set: 245 Inclination: 051.6370 deg RA of node: 271.7158 deg Eccentricity: 0.0003790 Arg of perigee: 232.9034 deg Mean anomaly: 127.1627 deg Mean motion: 15.91173805 rev/day Decay rate: 5.4193e-04 rev/day^2 Epoch rev: 3807 Checksum: 298
Satellite: METEOR-M Catalog number: 35865 Epoch time: 10086.15126556 Element set: 159 Inclination: 098.7684 deg RA of node: 140.5016 deg Eccentricity: 0.0001647 Arg of perigee: 234.8739 deg Mean anomaly: 125.2228 deg Mean motion: 14.21829257 rev/day Decay rate: 1.76e-06 rev/day^2 Epoch rev: 2706 Checksum: 303
Satellite: RS-38 Catalog number: 35869 Epoch time: 10086.13146561 Element set: 162 Inclination: 098.7670 deg RA of node: 140.5077 deg Eccentricity: 0.0003742 Arg of perigee: 239.4830 deg Mean anomaly: 120.5940 deg Mean motion: 14.21977911 rev/day Decay rate: 1.76e-06 rev/day^2 Epoch rev: 2706 Checksum: 301
/EX